Terug naar catalogus

COSMOS 595

ActiefMilitairLEO
NORAD 6852·PAYLOAD·🇷🇺 Russia

Gelanceerd Oct 2, 1973 vanaf Plesetsk Cosmodrome

Loading…

Volgende Passages (komende 24 uur)

TLE

VersSource: Space-Track

Epoch: Sep 14, 2026, 11:52 UTC

1 06852U 73069H   26257.49486326 -.00000024  00000-0 -46043-4 0  9999
2 06852  73.9975 262.7321 0056246 330.5991 104.5827 12.55488698426745

Volg COSMOS 595 in realtime met AllMySat

Download on the App Store